Flag for Germany Weather past 2 weeks in Uelzen, Lower Saxony, Germany

Now
59 °F

Partly sunny.


Feels Like: 57 °F
Forecast: 41 / 48 °F
Wind: 12 mph from West

Location: Fassberg

Current Time: Apr 26, 2015 at 3:34:13 PM

Latest Report: Apr 26, 2015 at 2:20 PM


Visibility: N/A

Pressure: 29.68 "Hg

Humidity: 77%

Dew point: 52 °F

Location of UelzenLocation

Historic Weather in Uelzen — Graph

°F

Uelzen temperature yesterday

Maximum temperature yesterday: 59 °F (at 11:20 AM)
Minimum temperature yesterday: 43 °F (at 12:20 AM)
Average temperature yesterday: 52 °F

Past Weeks' High & Low Weather Summary

 TemperatureHumidityPressure
High72 °F (Apr 15, 3:20 PM)100% (Apr 17, 5:20 AM)30.39 "Hg (Apr 17, 5:20 AM)
Low28 °F (Apr 14, 3:20 AM)27% (Apr 21, 5:20 PM)29.68 "Hg (Apr 26, 2:20 PM)
Average49 °F67%30.12 "Hg
* Reported Apr 11 2:20 PM — Apr 26 2:20 PM, Uelzen, Weather by CustomWeather, © 2015

Note: Actual official high and low records may vary slightly from our data, if they occured in-between our weather recording intervals... More about our weather records

Advertising

Uelzen weather history for previous 24 hours

 ConditionsComfort  
Time TempWeatherWind HumidityBarometerVisibility
2:20 PM
Sun, Apr 26
59 °FPartly sunny.12 mph77%29.68 "HgN/A
1:20 PM57 °FBroken clouds.8 mph88%29.71 "Hg5 mi
1:04 PM55 °FBroken clouds.7 mph88%29.71 "Hg4 mi
12:20 PM54 °FLight rain. Fog.7 mph94%29.71 "Hg2 mi
11:20 AM54 °FDrizzle. Fog.6 mph94%29.74 "Hg1 mi
10:20 AM52 °FDrizzle. Fog.5 mph100%29.74 "Hg1 mi
9:20 AM50 °FLight rain. Fog.5 mph100%29.74 "Hg1 mi
8:20 AM50 °FLight rain. Fog.5 mph100%29.74 "Hg1 mi
7:20 AM48 °FFog.No wind100%29.74 "Hg1 mi
7:00 AM46 °FFog.No wind100%29.74 "Hg1 mi
6:20 AM45 °FFog.2 mph93%29.74 "Hg0 mi
5:20 AM48 °FFog.3 mph100%29.71 "Hg0 mi
4:20 AM48 °FFog.5 mph100%29.74 "Hg0 mi
3:20 AM50 °FFog.6 mph94%29.74 "Hg0 mi
2:20 AM50 °FFog.6 mph100%29.74 "Hg1 mi
1:20 AM52 °FFog.7 mph94%29.74 "Hg2 mi
12:20 AM52 °FFog.7 mph100%29.74 "Hg2 mi
11:20 PM
Sat, Apr 25
54 °FLight rain. Fog.10 mph94%29.74 "Hg1 mi
10:20 PM54 °FFog.6 mph88%29.74 "Hg2 mi
9:20 PM54 °FFog.6 mph94%29.74 "Hg2 mi
8:20 PM54 °FFog.5 mph94%29.71 "Hg2 mi
7:20 PM55 °FFog.6 mph88%29.71 "Hg2 mi
6:20 PM55 °FDrizzle. Fog.7 mph88%29.74 "Hg2 mi
5:20 PM55 °FDrizzle. Fog.7 mph94%29.71 "Hg2 mi
4:20 PM55 °FDrizzle. Fog.7 mph88%29.74 "Hg2 mi
3:20 PM55 °FDrizzle. Fog.9 mph88%29.74 "Hg3 mi
Weather by CustomWeather, © 2015

See weather overviewHow to use our weather pages